Volver al catálogo

BREEZE-M R/B

ActivoHEO
NORAD 35874·ROCKET BODY·🇷🇺 Russia

Lanzado Sep 17, 2009 desde Baikonur Cosmodrome

Loading…

Próximos Pases (próximas 24 horas)

TLE

EnvejeciendoSource: Space-Track

Época: Sep 1, 2026, 14:49 UTC

1 35874U 09050B   26244.61739588 -.00000124  00000-0  00000+0 0  9993
2 35874  13.4851 351.0035 4802787 195.5318 207.0898  1.93076397118869

Sigue BREEZE-M R/B en tiempo real con AllMySat

Download on the App Store